Flag for Japan Weather past 2 weeks in Fukushima, Japan

Now
49 °F

Cool.


Feels Like: 46 °F
Forecast: 30 / 71 °F
Wind: 6 mph from Northeast

Location: Wakamatsu

Current Time: Apr 21, 2015 at 8:46:51 PM

Latest Report: Apr 21, 2015 at 8:00 PM


Visibility: 13 mi

Pressure: 30.04 "Hg

Humidity: 76%

Dew point: 42 °F

Location of FukushimaLocation

Historic Weather in Fukushima — Graph

°F

Fukushima temperature yesterday

Maximum temperature yesterday: 69 °F (at 3:00 PM)
Minimum temperature yesterday: 51 °F (at 4:00 AM)
Average temperature yesterday: 60 °F

Past Weeks' High & Low Weather Summary

 TemperatureHumidityPressure
High69 °F (Apr 20, 3:00 PM)100% (Apr 6, 7:00 PM)30.50 "Hg (Apr 6, 7:00 PM)
Low31 °F (Apr 9, 3:00 AM)16% (Apr 18, 2:00 PM)29.47 "Hg (Apr 15, 3:00 PM)
Average49 °F75%30.05 "Hg
* Reported Apr 6 7:00 PM — Apr 21 7:00 PM, Fukushima, Weather by CustomWeather, © 2015

Note: Actual official high and low records may vary slightly from our data, if they occured in-between our weather recording intervals... More about our weather records

Advertising

Fukushima weather history for previous 24 hours

 ConditionsComfort  
Time TempWeatherWind HumidityBarometerVisibility
7:00 PM
Tue, Apr 21
50 °FCool.7 mph76%30.01 "Hg12 mi
6:00 PM52 °FCool.10 mph70%29.99 "Hg12 mi
5:00 PM56 °FRefreshingly cool.10 mph58%29.96 "Hg12 mi
4:00 PM56 °FRefreshingly cool.12 mph56%29.94 "Hg12 mi
3:00 PM56 °FCool.13 mph60%29.93 "Hg12 mi
2:00 PM56 °FCool.14 mph63%29.91 "Hg12 mi
1:00 PM56 °FCool.13 mph67%29.90 "Hg12 mi
12:00 PM53 °FCool.12 mph74%29.90 "Hg12 mi
11:00 AM54 °FCool.15 mph70%29.88 "Hg12 mi
10:00 AM52 °FCool.12 mph79%29.88 "Hg12 mi
9:00 AM53 °FCool.12 mph73%29.85 "Hg12 mi
8:00 AM51 °FCool.7 mph88%29.84 "Hg12 mi
7:00 AM51 °FCool.10 mph88%29.80 "Hg12 mi
6:00 AM51 °FCool.7 mph90%29.77 "Hg12 mi
5:00 AM51 °FLight rain. Cloudy.10 mph90%29.75 "Hg12 mi
4:00 AM53 °FLight rain. Cloudy.8 mph92%29.70 "Hg12 mi
3:00 AM55 °FLight rain. Overcast.10 mph92%29.67 "Hg12 mi
2:00 AM57 °FLight rain. Overcast.8 mph97%29.64 "Hg9 mi
1:00 AM58 °FRain. Overcast.7 mph100%29.61 "Hg3 mi
12:00 AM59 °FRain. Overcast.6 mph100%29.60 "Hg2 mi
11:00 PM
Mon, Apr 20
60 °FLight rain. Overcast.6 mph99%29.58 "Hg4 mi
10:00 PM62 °FCool.7 mph93%29.56 "Hg12 mi
9:00 PM62 °FCool.3 mph95%29.53 "Hg12 mi
8:00 PM62 °FCool.1 mph94%29.47 "Hg12 mi
Weather by CustomWeather, © 2015

See weather overviewHow to use our weather pages